Regional Weather Roundup
Issued by NWS Charleston, SC

Current Version | Previous Version | Text Only | Print | Product List | Glossary Off
Versions: 1 2 3 4 5 6 7 8 9 10 11 12 13 14 15 16 17 18 19 20 21 22 23 24 25 26 27 28 29 30 31 32 33 34 35 36 37 38 39 40 41 42 43 44 45 46 47 48 49 50
000 ASUS42 KCHS 280413 RWRCHS REGIONAL WEATHER ROUNDUP NATIONAL WEATHER SERVICE CHARLESTON SC 1200 AM EDT THU JUL 28 2016 NOTE: "FAIR" INDICATES FEW OR NO CLOUDS BELOW 12,000 FEET WITH NO SIGNIFICANT WEATHER AND/OR OBSTRUCTIONS TO VISIBILITY. NOT ALL STATIONS ARE QUALITY CONTROLLED. USE DATA WITH CAUTION... ESPECIALLY DEWPOINT OBSERVATIONS. SCZ027-030-031-034>040-042>050-280500- ...SOUTHEAST SOUTH CAROLINA... CITY SKY/WX TMP DP RH WIND PRES REMARKS N CHARLESTON CLEAR 83 78 85 SW7 29.99S HX 93 WATERFRONT PRK N/A 85 81 87 SW5 29.98R HX 101 MOUNT PLEASANT FAIR 84 81 89 CALM 30.00R HX 98 JOHNS ISLAND FAIR 86 81 84 S6 30.00S HX 102 PINOPOLIS N/A 84 79 84 S6 29.92R HX 96 MONCKS CORNER FAIR 79 75 89 S3 29.99S SUMMERVILLE FAIR 81 81 100 S3 30.00S HX 91 BEAUFORT MCAS CLEAR 85 78 80 VRB3 30.00S HX 96 BEAUFORT ARPT FAIR 86 79 79 SW5 30.00S HX 99 HILTON HEAD IS CLEAR 86 81 84 VRB7 30.02S HX 102 WALTERBORO CLEAR 82 81 94 S5 30.01R HX 95 ALLENDALE FAIR 82 73 74 CALM 29.99S ...SOUTHERN MIDLANDS AND PEE DEE... CITY SKY/WX TMP DP RH WIND PRES REMARKS GEORGETOWN NOT AVBL KINGSTREE FAIR 81 72 74 CALM 29.98R ORANGEBURG CLEAR 81 73 76 SW6 29.99S BARNWELL NOT AVBL AIKEN FAIR 81 68 65 SW5 30.03S MANNING FAIR 81 73 78 CALM 29.98S COLUMBIA CLEAR 85 70 60 SW6 29.97S SUMTER CLEAR 83 73 70 S6 29.95S FLORENCE CLEAR 84 74 71 SW6 29.96S HX 91 MYRTLE BEACH CLEAR 84 72 65 SW8 30.00S N MYRTLE BEACH CLEAR 84 80 88 SW12 29.97F HX 97 $$ GAZ063-065-086>088-099>101-113>116-118-119-134>141-150-280500- ...SOUTHEAST GEORGIA... CITY SKY/WX TMP DP RH WIND PRES REMARKS SAVANNAH ARPT PTCLDY 84 74 71 S9 30.02R HX 91 HUNTER AAF CLEAR 83 79 86 S6 30.00R HX 95 FORT STEWART NOT AVBL STATESBORO CLEAR 83 74 74 CALM 30.01S HX 90 SYLVANIA NOT AVBL CLAXTON FAIR 79 75 89 CALM 30.02R ...CSRA...CENTRAL AND FAR SOUTHEAST GEORGIA... CITY SKY/WX TMP DP RH WIND PRES REMARKS THOMSON NOT AVBL AUGUSTA-BUSH CLEAR 84 71 65 SW6 29.99R AUGUSTA-DANIEL CLEAR 87 69 54 W6 30.01R HX 91 SWAINSBORO FAIR 82 70 65 SW5 30.03S VIDALIA CLEAR 82 70 65 SW3 30.03S EASTMAN FAIR 82 62 49 CALM 30.06R HAZLEHURST FAIR 83 73 71 CALM 30.03R HX 90 ALMA CLEAR 78 71 79 S3 30.03S WAYCROSS CLEAR 84 74 71 W5 30.04S HX 92 JESUP FAIR 79 75 89 CALM 30.03S BAXLEY FAIR 82 75 78 CALM 30.03S BRUNSWICK CLEAR 86 77 74 S9 30.04S HX 97 SAINT SIMONS CLEAR 84 76 76 SW9 30.03S HX 93 $$ SCZ027-028-034-036>038-045-046-048>050-GAZ119-141-280500- ...LAKE AND SUPPLEMENTAL COASTAL OBSERVATIONS... STATION/POSITION TIME TEMP WIND PRES WAVE SWELL AIR SEA DIR/SP/G HT/PER HT/PER/DIR (UTC) (F) (DEG/KT/KT) (MB) (FT/S) (FT/S/D) WINYAH BAY NOT AVBL LAKE MURRAY 0300 89 250/ 6/ 11 1014.6R ACE BASIN NERRS NOT AVBL FORT PULASKI 0300 88 210/ 9/ 13 1016.4 SAPELO ISLAND 0300 85 200/ 9 1017.0R $$ ANZ835-935-AMZ111-154-330-350-352-354-370-450-454-472-280500- ...C-MAN AND BUOY OBSERVATIONS... STATION/POSITION TIME TEMP WIND PRES WAVE SWELL AIR SEA DIR/SP/G HT/PER HT/PER/DIR (UTC) (F) (DEG/KT/KT) (MB) (FT/S) (FT/S/D) BUOY 41004 0350 86 86 220/ 14/ 17 1015.4R 3/ 4 2/160/ 8 BUOY 41008 0350 86 87 180/ 17/ 21 1016.4R 3/ 4 FOLLY BEACH CMAN 0400 86 220/ 16/ 19 1016.0R CAPERS NEARSHORE 0308 85 84 230/ 14/ 17 1015.4R FRIPP NEARSHORE 0308 87 87 210/ 17/ 21 1015.1R STATION/POSITION TIME TEMP WIND PRES WAVE SWELL AIR SEA DIR/SP/G HT/PER HT/PER/DIR (UTC) (F) (DEG/KT/KT) (MB) (FT/S) (FT/S/D) 5E ST. MARYS GA 0401 86 N/A 3/ 4 FRYING PAN BUOY 0300 85 85 220/ 12/ 14 1015.3S BUOY 41025 0350 83 85 270/ 14/ 17 1013.8S 4/ 4 2/160/ 8 CAPE LOOKOUT NC 0300 78 360/ 20/ 24 1015.5F BUOY 41002 0350 84 85 260/ 12/ 12 1016.8R 4/ 6 3/270/ 6 BUOY 41010 0320 86 87 180/ 10/ 10 1018.3F ST AUGUSTINE FL 0400 81 87 210/ 4/ 5 1018.7S $$

USA.gov is the U.S. government's official web portal to all federal, state and local government web resources and services.